TimeEST,TemperatureF,Dew PointF,Humidity,Sea Level PressureIn,VisibilityMPH,Wind Direction,Wind SpeedMPH,Gust SpeedMPH,PrecipitationIn,Events,Conditions,WindDirDegrees,DateUTC
12:56 AM,28.9,16.0,58,29.92,10.0,West,19.6,27.6,N/A,,Overcast,260,2014-01-15 05:56:00
1:56 AM,28.0,17.1,63,29.92,10.0,West,18.4,23.0,N/A,,Overcast,260,2014-01-15 06:56:00
2:56 AM,27.0,18.0,69,29.93,10.0,WSW,12.7,-,N/A,,Scattered Clouds,240,2014-01-15 07:56:00
3:56 AM,28.0,18.0,66,29.94,10.0,WSW,12.7,-,N/A,,Mostly Cloudy,250,2014-01-15 08:56:00
4:56 AM,28.0,19.0,69,29.95,10.0,West,15.0,-,N/A,,Overcast,270,2014-01-15 09:56:00
5:56 AM,27.0,19.0,72,29.96,10.0,West,15.0,23.0,0.00,,Overcast,270,2014-01-15 10:56:00
6:56 AM,27.0,18.0,69,29.98,9.0,West,16.1,-,0.00,,Overcast,270,2014-01-15 11:56:00
7:56 AM,26.1,15.1,63,30.01,10.0,WNW,13.8,-,0.00,,Overcast,290,2014-01-15 12:56:00
8:56 AM,25.0,15.1,66,30.04,10.0,West,9.2,-,N/A,,Overcast,280,2014-01-15 13:56:00
9:56 AM,25.0,17.1,72,30.07,4.0,West,10.4,-,0.00,Snow,Light Snow,280,2014-01-15 14:56:00
10:11 AM,24.8,17.6,74,30.04,2.0,West,13.8,-,0.00,Snow,Light Snow,280,2014-01-15 15:11:00
10:25 AM,24.8,17.6,74,30.04,7.0,West,12.7,-,0.00,Snow,Light Snow,270,2014-01-15 15:25:00
10:56 AM,26.1,17.1,69,30.08,10.0,West,10.4,-,0.00,,Overcast,270,2014-01-15 15:56:00
11:56 AM,27.0,14.0,58,30.07,10.0,West,12.7,-,0.00,Snow,Light Snow,270,2014-01-15 16:56:00
12:56 PM,25.0,16.0,69,30.06,2.5,West,13.8,-,0.00,Snow,Light Snow,270,2014-01-15 17:56:00
1:13 PM,26.6,17.6,69,30.02,7.0,West,10.4,-,0.00,Snow,Light Snow,260,2014-01-15 18:13:00
1:56 PM,25.0,15.1,66,30.05,10.0,West,13.8,-,0.00,,Overcast,260,2014-01-15 18:56:00
2:56 PM,26.1,15.1,63,30.05,10.0,WNW,12.7,-,N/A,,Overcast,290,2014-01-15 19:56:00
3:56 PM,25.0,16.0,69,30.07,10.0,West,12.7,-,0.00,,Overcast,280,2014-01-15 20:56:00
4:56 PM,25.0,15.1,66,30.08,10.0,West,10.4,-,0.00,,Overcast,280,2014-01-15 21:56:00
5:56 PM,24.1,15.1,69,30.09,10.0,West,11.5,-,0.00,,Overcast,270,2014-01-15 22:56:00
6:56 PM,24.1,14.0,65,30.11,9.0,West,11.5,-,0.00,Snow,Light Snow,270,2014-01-15 23:56:00
7:56 PM,23.0,17.1,78,30.10,7.0,West,8.1,-,0.00,Snow,Light Snow,280,2014-01-16 00:56:00
8:13 PM,21.2,17.6,86,30.06,6.0,West,5.8,-,0.00,Snow,Light Snow,280,2014-01-16 01:13:00
8:56 PM,19.9,15.1,81,30.11,10.0,West,6.9,-,0.00,,Scattered Clouds,280,2014-01-16 01:56:00
9:56 PM,18.0,12.9,81,30.10,10.0,WSW,5.8,-,N/A,,Clear,250,2014-01-16 02:56:00
10:56 PM,19.0,15.1,85,30.09,9.0,SW,6.9,-,N/A,,Clear,230,2014-01-16 03:56:00
11:56 PM,17.1,12.9,84,30.08,8.0,WSW,6.9,-,N/A,,Partly Cloudy,240,2014-01-16 04:56:00